Temp
-5 -5 -5 -5 -5 -5 -5 -5 -5 -5 -5 -5 -5 -5 -5 -5 -5 -5 -5 -5 -5 -5 -5 -5 -5 -5 -5 -5 -5 -5 -5 -5 -5 -6 -6 -6 -6 -6 -6 -6 -6 -7
-5 -5 -5 -5 -5 -5 -5 -5 -5 -5 -5 -5 -5 -5 -5 -5 -5 -5 -5 -5 -5 -5 -5 -5 -5 -5 -5 -5 -5 -5 -5 -5 -5 -5 -6 -6 -6 -6 -6 -6 -6 -7
-5 -5 -4 -4 -5 -5 -5 -5 -5 -5 -5 -5 -5 -5 -5 -5 -5 -5 -5 -5 -5 -5 -5 -5 -5 -5 -5 -5 -5 -5 -5 -5 -5 -5 -5 -5 -6 -6 -6 -6 -6 -6
-4 -4 -4 -4 -4 -4 -5 -5 -5 -5 -5 -5 -5 -5 -5 -5 -5 -5 -5 -5 -5 -5 -5 -5 -5 -5 -5 -5 -5 -5 -5 -5 -5 -5 -5 -5 -5 -6 -6 -6 -6 -6
-4 -4 -4 -4 -4 -4 -4 -5 -5 -5 -5 -5 -5 -5 -5 -4 -4 -4 -4 -5 -5 -5 -5 -5 -5 -5 -5 -5 -5 -5 -5 -5 -5 -5 -5 -5 -5 -5 -6 -6 -6 -6
-4 -4 -4 -4 -4 -4 -4 -4 -4 -4 -5 -5 -5 -5 -4 -4 -4 -4 -4 -4 -4 -4 -4 -5 -5 -5 -5 -5 -5 -5 -5 -5 -5 -5 -5 -5 -5 -5 -5 -6 -6 -6
-4 -4 -3 -3 -4 -4 -4 -4 -4 -4 -4 -4 -4 -4 -4 -4 -4 -4 -4 -4 -4 -4 -4 -4 -4 -4 -5 -5 -5 -4 -5 -5 -5 -5 -5 -5 -5 -5 -5 -5 -5 -6
-4 -4 -3 -3 -3 -4 -4 -4 -4 -4 -4 -4 -4 -4 -4 -4 -4 -4 -4 -4 -4 -4 -4 -4 -4 -4 -4 -4 -4 -4 -4 -4 -4 -4 -4 -4 -4 -5 -5 -5 -5 -5
-4 -4 -3 -3 -3 -4 -4 -4 -4 -4 -4 -4 -4 -4 -4 -4 -4 -4 -4 -4 -4 -4 -4 -4 -4 -4 -4 -4 -4 -4 -4 -4 -4 -4 -4 -4 -4 -4 -4 -4 -5 -5
-4 -4 -4 -3 -3 -4 -4 -3 -3 -3 -3 -3 -4 -3 -3 -3 -3 -4 -4 -4 -4 -4 -4 -4 -4 -4 -4 -4 -4 -4 -4 -4 -4 -4 -4 -4 -4 -4 -4 -4 -4 -4
-4 -4 -4 -4 -4 -4 -4 -4 -3 -3 -3 -3 -3 -3 -3 -3 -3 -3 -3 -4 -4 -4 -3 -3 -3 -3 -4 -4 -4 -4 -4 -4 -4 -4 -4 -4 -4 -4 -4 -4 -4 -4
-4 -4 -4 -4 -4 -4 -4 -4 -4 -3 -3 -3 -3 -3 -3 -3 -3 -3 -3 -3 -3 -3 -3 -3 -3 -3 -3 -3 -4 -4 -4 -4 -4 -4 -4 -4 -4 -4 -4 -4 -4 -4
-4 -4 -4 -4 -4 -4 -4 -4 -4 -3 -3 -3 -3 -3 -3 -3 -3 -3 -3 -3 -3 -3 -3 -3 -3 -3 -3 -3 -4 -4 -4 -4 -4 -4 -4 -4 -4 -4 -4 -4 -4 -4
-4 -4 -4 -4 -4 -4 -4 -4 -4 -4 -4 -3 -3 -3 -3 -3 -3 -3 -3 -3 -3 -3 -3 -3 -3 -3 -3 -3 -3 -4 -4 -4 -4 -4 -4 -4 -4 -4 -4 -4 -4 -4
-4 -4 -4 -4 -4 -4 -4 -4 -4 -4 -4 -3 -3 -3 -3 -3 -3 -3 -3 -3 -3 -2 -2 -2 -3 -3 -3 -3 -3 -4 -4 -4 -4 -4 -4 -4 -4 -5 -5 -4 -4 -4
-4 -4 -4 -4 -4 -4 -4 -4 -4 -4 -4 -4 -3 -3 -3 -3 -3 -3 -3 -3 -3 -3 -3 -3 -3 -3 -3 -3 -3 -3 -4 -4 -4 -4 -4 -4 -5 -5 -5 -5 -5 -5
-4 -4 -4 -4 -4 -4 -4 -3 -4 -3 -3 -3 -3 -3 -3 -3 -3 -3 -3 -3 -3 -3 -3 -3 -3 -3 -3 -3 -3 -3 -3 -4 -4 -4 -4 -5 -5 -5 -5 -5 -5 -5
-5 -4 -4 -4 -4 -4 -4 -4 -3 -3 -3 -3 -3 -3 -3 -3 -3 -3 -3 -3 -3 -3 -3 -3 -3 -3 -3 -3 -3 -3 -3 -4 -4 -4 -5 -5 -5 -5 -5 -5 -5 -5
-5 -4 -4 -4 -4 -4 -4 -4 -3 -3 -3 -3 -3 -4 -3 -3 -3 -3 -3 -3 -3 -3 -3 -3 -3 -3 -3 -4 -4 -3 -3 -4 -4 -4 -4 -5 -5 -5 -5 -5 -5 -5
-6 -5 -4 -4 -4 -4 -4 -4 -4 -3 -3 -4 -4 -4 -4 -4 -4 -4 -4 -4 -4 -4 -4 -4 -4 -3 -4 -4 -4 -4 -4 -4 -4 -4 -4 -5 -5 -5 -5 -5 -5 -5
-6 -6 -5 -5 -4 -4 -4 -4 -4 -4 -4 -4 -4 -4 -4 -4 -4 -4 -4 -4 -4 -4 -4 -4 -4 -4 -4 -4 -4 -4 -4 -4 -4 -4 -4 -5 -5 -5 -5 -5 -5 -5
-6 -5 -5 -5 -4 -4 -4 -4 -4 -4 -4 -4 -4 -4 -4 -4 -4 -4 -4 -4 -4 -4 -4 -4 -4 -4 -4 -4 -4 -4 -4 -4 -4 -4 -4 -5 -5 -5 -5 -5 -5 -5
-5 -5 -5 -5 -5 -4 -4 -4 -4 -4 -4 -4 -4 -4 -5 -4 -4 -5 -4 -5 -5 -4 -4 -4 -4 -4 -4 -4 -4 -4 -4 -4 -4 -4 -4 -5 -5 -5 -5 -5 -5 -5
-6 -6 -6 -5 -5 -5 -5 -5 -5 -5 -5 -5 -4 -5 -5 -5 -5 -5 -5 -5 -5 -5 -5 -4 -5 -5 -5 -5 -5 -4 -4 -4 -4 -4 -4 -5 -5 -5 -5 -5 -5 -5
-6 -6 -6 -6 -6 -5 -5 -5 -5 -6 -6 -6 -6 -5 -6 -6 -6 -6 -5 -5 -5 -5 -5 -5 -5 -5 -5 -5 -5 -5 -4 -4 -4 -4 -4 -5 -5 -5 -5 -5 -6 -6
-7 -6 -6 -6 -6 -6 -6 -5 -6 -6 -6 -6 -6 -6 -6 -6 -6 -6 -6 -6 -5 -5 -5 -5 -5 -5 -5 -5 -5 -5 -5 -5 -4 -4 -4 -5 -5 -5 -5 -5 -6 -6
Height
5949 5950 5952 5954 5955 5956 5957 5959 5960 5961 5962 5963 5964 5964 5965 5966 5966 5967 5967 5968 5969 5969 5970 5971 5972 5972 5973 5974 5974 5975 5975 5975 5976 5976 5977 5977 5978 5978 5979 5979 5980 5980
5948 5949 5951 5953 5955 5956 5957 5958 5960 5961 5962 5962 5963 5964 5965 5966 5966 5967 5967 5967 5968 5969 5970 5971 5971 5972 5973 5974 5974 5975 5975 5976 5976 5976 5976 5977 5977 5978 5978 5979 5979 5980
5947 5949 5950 5952 5954 5955 5956 5958 5959 5960 5961 5962 5963 5964 5965 5965 5966 5967 5967 5967 5968 5969 5969 5970 5971 5972 5973 5973 5974 5975 5975 5976 5976 5976 5976 5976 5977 5977 5978 5979 5979 5979
5946 5948 5949 5951 5953 5954 5956 5957 5958 5960 5961 5962 5962 5963 5964 5965 5966 5966 5967 5967 5968 5968 5969 5970 5970 5971 5972 5973 5974 5974 5975 5975 5976 5976 5976 5976 5976 5977 5977 5978 5979 5979
5945 5947 5948 5950 5952 5953 5955 5956 5957 5959 5960 5961 5962 5963 5964 5965 5965 5966 5966 5967 5967 5968 5968 5969 5970 5970 5971 5972 5973 5973 5974 5974 5975 5976 5976 5976 5976 5977 5977 5978 5978 5979
5944 5945 5947 5949 5951 5952 5953 5954 5956 5958 5959 5960 5962 5962 5963 5964 5965 5965 5966 5966 5966 5967 5967 5968 5969 5970 5970 5971 5972 5972 5973 5973 5974 5975 5975 5976 5976 5976 5977 5977 5978 5978
5942 5944 5946 5948 5949 5950 5952 5953 5955 5956 5958 5959 5960 5961 5962 5963 5964 5964 5965 5965 5965 5966 5966 5967 5968 5969 5969 5970 5971 5972 5972 5973 5973 5974 5975 5975 5976 5976 5977 5977 5978 5978
5940 5942 5944 5946 5947 5949 5950 5951 5953 5955 5956 5958 5959 5960 5961 5962 5963 5964 5964 5964 5965 5965 5965 5966 5967 5968 5969 5969 5970 5971 5971 5972 5972 5973 5974 5975 5975 5976 5976 5977 5977 5978
5939 5940 5942 5944 5946 5947 5949 5950 5951 5953 5954 5956 5957 5958 5960 5961 5962 5963 5963 5964 5964 5964 5964 5965 5966 5967 5968 5969 5969 5970 5971 5971 5972 5972 5973 5974 5975 5975 5976 5976 5977 5977
5938 5939 5941 5943 5944 5946 5947 5948 5950 5951 5953 5954 5955 5957 5958 5959 5960 5961 5962 5963 5963 5963 5964 5964 5965 5966 5966 5968 5968 5969 5970 5971 5971 5972 5972 5973 5974 5975 5976 5976 5977 5977
5937 5938 5940 5942 5943 5944 5946 5947 5948 5950 5951 5953 5954 5955 5957 5958 5959 5960 5961 5961 5962 5963 5963 5963 5964 5965 5966 5966 5967 5968 5969 5970 5970 5971 5972 5973 5973 5974 5975 5975 5976 5977
5935 5937 5938 5940 5942 5943 5944 5946 5947 5948 5950 5951 5952 5954 5955 5956 5957 5958 5959 5960 5961 5962 5962 5963 5963 5964 5965 5966 5966 5967 5968 5969 5970 5970 5971 5972 5973 5973 5974 5974 5975 5976
5933 5935 5936 5938 5939 5941 5942 5944 5946 5947 5948 5950 5951 5952 5954 5955 5956 5957 5958 5958 5959 5961 5961 5962 5963 5963 5964 5965 5966 5966 5967 5968 5968 5969 5970 5971 5972 5973 5973 5974 5974 5975
5930 5932 5933 5935 5937 5938 5940 5942 5944 5946 5947 5948 5949 5951 5952 5953 5954 5955 5956 5957 5958 5959 5960 5961 5962 5963 5964 5964 5965 5965 5966 5966 5967 5968 5969 5969 5971 5972 5972 5973 5974 5974
5926 5928 5931 5932 5934 5936 5938 5939 5942 5944 5945 5946 5948 5949 5950 5951 5953 5954 5955 5956 5957 5958 5959 5960 5961 5962 5963 5963 5964 5964 5965 5965 5966 5967 5968 5968 5969 5970 5972 5972 5973 5974
5921 5925 5927 5929 5931 5934 5935 5937 5939 5941 5943 5945 5946 5947 5949 5950 5951 5952 5953 5955 5956 5956 5958 5959 5960 5961 5961 5962 5962 5963 5964 5964 5965 5966 5967 5967 5968 5969 5970 5971 5972 5973
5916 5920 5923 5926 5928 5931 5932 5934 5936 5939 5941 5943 5945 5946 5947 5948 5949 5951 5952 5953 5954 5955 5956 5957 5958 5959 5960 5960 5960 5961 5962 5963 5964 5965 5965 5966 5967 5968 5969 5970 5971 5972
5913 5914 5918 5921 5924 5927 5929 5930 5933 5935 5938 5940 5943 5944 5945 5946 5948 5949 5950 5951 5952 5953 5954 5955 5956 5957 5958 5958 5958 5959 5960 5961 5962 5963 5964 5965 5965 5966 5967 5968 5970 5971
5912 5911 5912 5916 5920 5923 5925 5927 5929 5931 5934 5937 5939 5941 5942 5944 5946 5947 5948 5949 5950 5951 5951 5952 5954 5955 5956 5956 5956 5956 5957 5958 5959 5960 5961 5962 5963 5964 5965 5966 5968 5969
5911 5910 5909 5911 5915 5919 5922 5924 5926 5927 5930 5932 5934 5936 5938 5941 5943 5944 5945 5946 5947 5948 5949 5949 5950 5952 5953 5953 5953 5954 5955 5955 5957 5958 5959 5960 5961 5962 5963 5964 5965 5966
5908 5908 5907 5908 5910 5914 5917 5919 5921 5922 5924 5926 5928 5930 5933 5935 5937 5939 5941 5943 5944 5945 5946 5947 5947 5948 5950 5951 5950 5951 5952 5953 5954 5956 5957 5958 5959 5960 5961 5961 5962 5963
5901 5903 5903 5903 5905 5908 5910 5912 5914 5916 5917 5919 5922 5925 5927 5929 5932 5934 5936 5939 5940 5941 5943 5944 5945 5945 5947 5948 5947 5948 5948 5950 5951 5953 5955 5956 5956 5957 5958 5959 5960 5961
5895 5897 5898 5899 5900 5901 5903 5906 5908 5910 5911 5913 5915 5918 5921 5923 5926 5928 5930 5933 5935 5937 5938 5940 5941 5942 5943 5944 5944 5944 5945 5947 5949 5950 5952 5953 5954 5954 5955 5956 5957 5958
5891 5893 5894 5894 5894 5895 5898 5902 5906 5908 5910 5911 5912 5914 5917 5919 5921 5923 5925 5927 5930 5932 5934 5936 5937 5938 5939 5941 5941 5941 5942 5943 5945 5947 5948 5950 5951 5951 5952 5953 5954 5954
5887 5889 5889 5889 5889 5891 5895 5900 5904 5906 5908 5910 5912 5915 5918 5920 5921 5922 5923 5924 5925 5927 5929 5930 5932 5933 5935 5937 5937 5938 5938 5939 5941 5943 5945 5947 5948 5948 5949 5950 5950 5951
5883 5884 5883 5883 5885 5888 5892 5896 5899 5902 5904 5907 5911 5916 5919 5921 5922 5923 5924 5923 5924 5925 5926 5927 5928 5929 5930 5932 5933 5933 5934 5935 5936 5939 5941 5943 5944 5944 5945 5946 5946 5947
Wind_Speed
19 19 19 17 16 15 14 13 12 11 10 9 9 8 8 8 9 8 8 7 6 5 5 5 5 5 5 6 6 6 6 7 7 7 7 8 8 8 8 7 6 6
20 20 19 18 17 16 15 14 13 11 11 10 9 9 9 9 9 8 8 7 6 6 5 5 5 5 5 5 6 6 6 6 6 7 7 8 8 8 8 8 7 7
21 21 20 19 18 17 16 14 13 12 11 11 11 10 10 10 9 9 9 8 7 7 6 6 6 6 5 5 5 5 6 6 6 7 7 8 8 8 8 8 8 8
22 22 21 20 19 18 16 15 14 13 12 12 12 11 11 10 10 10 9 9 8 8 8 7 7 7 6 6 6 6 6 6 6 6 7 7 8 8 8 8 9 9
23 23 22 20 19 18 17 17 16 14 14 13 13 12 12 11 11 10 10 9 9 9 9 8 8 8 7 7 7 7 6 6 6 6 6 7 7 8 8 9 9 9
24 23 22 21 20 20 19 19 17 16 15 14 14 13 13 12 11 11 10 10 9 9 9 8 8 8 8 8 8 7 7 7 6 7 6 7 7 7 8 8 9 9
25 25 23 22 22 21 21 20 19 18 17 16 15 15 14 13 12 11 10 10 9 9 8 8 8 8 8 8 8 8 8 7 7 7 7 7 7 7 7 8 8 9
26 26 24 23 23 23 22 22 21 20 19 18 17 17 16 14 13 11 10 10 9 9 8 8 8 8 8 9 9 9 8 8 8 8 8 8 7 7 7 7 8 9
28 27 26 25 24 24 24 23 23 22 21 19 19 19 17 15 14 12 11 10 10 9 9 8 8 8 8 9 9 9 9 9 9 9 10 9 8 7 7 7 7 8
28 28 27 26 26 25 25 25 25 24 22 21 21 20 18 17 15 13 12 11 10 10 9 9 9 8 8 9 9 10 10 10 10 10 11 12 10 9 8 7 7 7
28 28 28 27 27 27 27 26 26 25 24 23 22 21 20 19 17 15 13 12 12 11 10 9 9 9 8 9 9 10 11 11 10 11 12 13 13 12 10 9 8 7
28 28 29 28 28 28 28 27 27 26 25 24 24 23 22 20 19 17 15 14 14 12 11 11 10 10 9 9 10 11 12 12 11 11 12 13 14 14 12 11 10 9
30 30 29 30 30 29 29 28 28 27 26 26 25 24 23 22 21 19 18 17 16 14 13 13 12 11 10 10 10 12 13 13 13 12 12 13 14 14 14 13 13 12
32 32 31 31 31 31 30 29 28 28 28 27 27 25 25 24 23 22 21 20 18 17 16 15 14 13 13 12 12 13 14 14 14 14 13 13 13 14 14 15 14 14
35 35 33 33 33 32 31 31 29 29 29 29 28 27 26 26 25 24 23 22 21 20 18 17 16 16 15 15 14 14 15 15 15 15 14 14 14 14 14 15 15 15
38 37 36 35 34 33 32 32 31 31 30 30 29 28 28 27 27 26 25 24 23 23 21 20 19 18 18 18 17 17 17 16 16 15 15 15 15 14 14 15 15 15
38 38 37 36 36 35 34 33 32 32 31 30 30 30 29 28 28 27 27 26 26 25 24 22 21 20 20 20 20 19 18 18 17 16 16 16 15 15 15 15 15 14
37 37 37 37 37 37 37 36 34 33 32 31 30 30 30 30 29 28 28 27 27 26 26 24 23 22 22 22 23 22 20 20 19 18 18 17 17 16 16 16 15 14
36 34 35 35 35 37 38 38 37 35 33 32 32 32 32 31 30 29 29 28 28 27 27 26 25 23 22 23 24 24 22 22 21 21 20 19 18 18 18 17 16 16
35 33 31 32 33 35 37 38 38 37 36 35 35 34 33 32 31 30 30 29 28 28 27 27 26 25 23 24 26 25 24 24 23 22 22 21 20 20 19 19 18 18
34 32 30 30 31 32 35 37 38 39 39 38 38 37 36 35 34 33 32 30 30 29 28 28 28 27 25 25 27 27 26 25 24 23 23 22 22 22 21 21 21 20
35 32 30 30 31 33 35 37 38 40 41 40 40 40 39 38 37 36 34 33 32 31 30 29 29 29 27 27 28 29 28 27 25 24 23 24 24 24 24 24 23 23
35 34 33 33 34 37 37 37 38 39 40 41 41 40 39 39 39 38 38 37 35 34 33 31 30 31 30 29 30 31 30 28 26 25 24 24 25 26 26 26 25 25
34 34 35 37 38 40 40 38 37 37 38 41 41 38 38 39 38 38 39 39 38 37 36 34 33 33 32 31 32 32 31 29 27 26 25 25 25 27 27 28 28 28
36 36 38 40 40 40 40 39 37 37 37 39 38 36 36 37 37 37 38 39 39 39 39 38 36 35 34 33 33 33 33 32 30 28 26 25 26 27 28 29 30 30
41 40 42 43 42 41 40 39 38 38 37 37 37 35 34 34 34 35 36 38 39 39 40 40 40 38 37 35 35 35 35 34 33 31 28 27 27 28 29 29 31 32
Wind_Direction
207 213 214 214 213 211 209 208 206 202 200 201 205 210 213 218 221 220 219 215 214 219 224 228 229 228 229 231 230 229 229 232 234 236 238 240 239 241 246 245 240 244
209 214 214 213 213 213 211 210 210 209 206 204 205 208 209 211 216 219 220 217 215 220 226 233 237 233 230 232 231 230 230 230 231 231 231 233 234 235 238 239 235 235
212 215 214 213 214 216 216 213 213 213 211 207 206 208 209 210 214 219 223 223 221 223 227 234 241 242 240 240 237 236 236 235 231 228 226 228 229 230 231 231 231 231
215 216 215 214 214 216 218 219 217 214 212 210 210 212 217 220 222 225 227 230 230 229 228 230 238 244 245 244 242 241 241 239 234 227 226 227 225 224 225 224 225 228
218 220 217 214 215 215 217 221 219 216 214 215 217 219 222 226 230 232 234 235 236 236 235 231 232 239 245 247 243 240 239 238 236 229 223 224 222 219 219 220 222 224
219 222 220 216 215 214 217 220 219 218 218 219 221 224 225 227 231 236 239 241 241 241 242 238 232 231 235 242 243 239 235 232 231 227 220 216 216 214 213 213 216 219
220 222 222 219 216 216 218 220 220 219 221 222 223 226 226 226 229 235 240 244 244 243 244 242 237 230 226 230 235 235 232 226 222 219 212 206 205 205 204 205 209 213
220 222 223 221 219 218 220 222 222 222 222 222 224 225 226 225 227 232 236 241 245 247 245 242 239 233 226 223 224 226 224 219 216 213 206 198 194 193 194 196 201 205
221 223 223 222 221 220 222 225 225 225 224 222 224 226 226 227 227 228 231 236 241 246 245 242 239 234 228 222 221 220 216 212 213 213 205 196 189 187 186 188 193 197
224 225 225 225 224 223 223 226 228 229 227 225 226 227 227 229 228 228 229 232 237 243 244 243 241 236 230 224 220 217 212 209 211 213 209 201 193 187 183 183 188 192
228 228 229 229 229 227 226 227 230 231 230 229 229 229 230 232 232 230 230 233 236 240 244 246 245 242 234 226 221 215 211 209 211 214 213 208 202 195 188 186 188 191
229 231 231 232 233 232 231 230 231 233 233 232 232 232 233 234 235 234 234 236 238 240 244 247 247 246 240 231 222 214 211 211 213 215 216 215 212 207 201 197 195 194
230 231 231 232 233 234 234 233 233 235 236 236 236 235 236 237 239 239 238 239 240 241 245 248 251 251 248 240 228 217 213 214 215 217 219 219 218 216 214 211 208 205
231 231 231 232 232 233 235 235 235 236 237 238 239 238 238 240 242 242 243 244 245 246 247 249 252 255 254 250 238 226 220 218 218 220 222 222 222 221 221 221 220 218
231 231 232 233 233 234 235 237 236 236 237 239 240 240 240 241 243 245 246 248 250 250 251 252 254 257 258 256 250 239 232 227 224 224 225 226 225 224 224 226 227 227
232 232 232 233 234 235 237 238 238 238 238 239 241 242 242 242 244 246 248 250 252 254 255 256 257 259 259 258 256 251 245 240 234 230 231 231 230 228 228 229 231 231
232 232 232 233 234 235 237 238 240 241 241 241 242 244 244 244 244 246 248 249 252 254 256 258 259 260 259 259 258 256 252 249 243 238 236 236 236 234 232 232 233 233
235 233 234 235 235 236 237 237 238 241 243 244 245 246 247 247 246 246 248 250 252 254 256 258 258 259 258 258 259 258 255 252 248 244 241 239 239 239 237 237 236 235
240 235 234 236 237 238 239 239 238 239 241 243 245 246 248 249 249 249 249 250 252 253 255 256 256 256 256 257 258 258 257 255 251 248 245 242 242 242 241 241 239 238
242 239 236 236 238 239 240 241 241 241 240 241 242 244 246 248 250 251 251 251 252 252 253 254 254 254 253 255 257 258 257 256 254 251 249 247 245 245 245 245 243 242
242 242 240 238 239 240 240 241 241 241 241 241 241 242 243 244 246 248 249 249 251 251 251 251 252 253 251 252 255 257 257 257 255 254 252 251 249 248 248 248 248 247
241 241 240 240 242 241 239 238 239 239 240 240 240 240 242 242 243 245 246 247 248 248 248 248 249 250 249 249 252 254 255 255 256 254 252 251 251 251 250 251 251 251
240 239 239 240 243 244 242 240 239 239 240 239 238 239 241 243 243 243 243 243 244 245 246 246 246 247 247 247 249 253 255 255 255 254 252 250 250 250 251 252 253 253
241 240 239 238 241 244 245 245 247 247 247 246 243 240 241 243 244 244 244 243 243 244 245 245 244 245 245 245 247 251 254 255 254 253 253 251 250 250 251 253 254 254
242 242 241 240 243 247 248 248 249 250 252 254 253 250 250 249 249 250 249 247 245 244 244 244 244 244 244 244 245 248 251 254 254 252 251 252 252 251 251 251 253 254
242 243 243 244 247 251 253 252 251 250 251 254 256 257 260 261 261 260 259 258 255 250 247 246 245 245 244 243 244 246 248 251 252 252 251 251 251 251 251 251 251 252